Zurück zum Katalog

THOR AGENA B R/B

AktivPO
NORAD 426·ROCKET BODY·🇺🇸 United States

Gestartet Sep 29, 1962 von Vandenberg Space Force Base

Loading…

Nächste Überflüge (nächste 24 Stunden)

TLE

AktuellSource: Space-Track

Epoche: Sep 14, 2026, 18:10 UTC

1 00426U 62049B   26257.75737649  .00000070  00000-0  70350-4 0  9999
2 00426  80.4731 179.6167 0018128   0.9346  26.6285 13.68768088192383

Verfolge THOR AGENA B R/B in Echtzeit mit AllMySat

Download on the App Store